View from above orbital plane
|
View from above satellite
|
Ground track
|
The orbit data is extracted from the following two-line orbital elements,
1 19770U 89005B 21021.81677090 .00000058 00000-0 27284-4 0 9990
2 19770 74.0454 146.1824 0006049 262.4432 259.5189 14.38860927675632
Epoch (UTC): | 21 January 2021 19:36:09 |
Eccentricity: | 0.0006049 |
inclination: | 74.0454° |
perigee height: | 758 km |
apogee height: | 766 km |
right ascension of ascending node: | 146.1824° |
argument of perigee: | 262.4432° |
revolutions per day: | 14.38860927 |
mean anomaly at epoch: | 259.5189° |
orbit number at epoch: | 67563 |
The dashed part of the orbit path shows where the satellite is in the earth's shadow,
|
|